Location: Charbonni�res
(46.3891°N, 4.8335°E)
Time: 22:10:10
(UTC+00:00)

Daily predictions for brighter satellites

Satellite Brightness Start Highest point End
(mag) Time Altitude Azimuth Time Altitude Azimuth Time Altitude Azimuth
Cosmos 2184 Rocket 4.4 17:55:58 10° SSE 18:01:49 41° E 18:07:39 10° NNE
ARGOS 3.1 17:58:43 10° SSE 18:04:04 78° ENE 18:09:27 10° NNW
Cosmos 1486 Rocket 4.0 18:00:13 10° S 18:05:25 68° ESE 18:10:41 10° NNE
Lacrosse 5 rocket 2.2 18:01:12 10° NW 18:05:36 43° NNE 18:09:51 10° E
Cosmos 1674 Rocket 3.6 18:03:01 10° N 18:07:19 56° ENE 18:11:33 10° SSE
SJ 16-02 3.1 18:10:03 10° ESE 18:11:56 13° E 18:13:48 10° ENE
Cosmos 1943 Rocket 2.4 18:07:52 10° S 18:13:09 46° ESE 18:18:30 10° NE
CZ-4 R/B 1.3 18:09:31 10° SSE 18:13:18 63° ENE 18:17:06 10° N
ISS -3.1 18:10:20 10° W 18:13:39 53° NNW 18:16:59 10° ENE
Cosmos 1975 2.7 18:09:55 10° S 18:13:52 73° E 18:17:51 10° NNE
COSMO-SKYMED 1 3.1 18:10:06 10° N 18:14:26 64° WNW 18:18:43 10° SSW
Okean 2 3.4 18:10:31 10° N 18:14:34 61° ENE 18:18:36 10° SSE
Feng Yun 1-1 Rocket 4.2 18:10:10 10° SSE 18:15:34 88° ENE 18:21:01 10° NNW
Cosmos 2278 Rocket 3.6 18:12:32 10° SW 18:17:53 41° NW 18:23:16 10° NNE
Cosmos 2154 Rocket 4.4 18:15:06 10° SSE 18:20:56 40° E 18:26:47 10° NNE
Cosmos 2369 Rocket 3.1 18:16:57 10° SSE 18:21:35 27° ESE 18:26:12 10° NE
SL-08 RB Rocket 3.6 18:17:52 10° SSE 18:22:19 82° ENE 18:26:49 10° NNW
CZ-2C R/B 2.9 18:17:15 10° NNE 18:22:47 84° WNW 18:28:23 10° SSW
BREEZE-M DEB (TANK) 2.1 18:22:04 10° WNW 18:24:05 48° SSW 18:25:48 12° SE
Cosmos 1400 Rocket 3.2 18:21:32 10° SSE 18:25:25 43° E 18:29:16 10° NNE
Cosmos 773 Rocket 4.4 18:21:07 10° N 18:26:08 44° ENE 18:31:10 10° SE
SJ-6B 4.3 18:23:39 11° ESE 18:26:31 21° ENE 18:29:38 10° NNE
Lacrosse 4 Rocket 4.0 18:24:03 10° W 18:27:04 20° NW 18:30:06 10° N
Cosmos 2297 3.7 18:23:19 10° SSW 18:28:57 68° ESE 18:34:40 10° NNE
SeaSat 1 3.3 18:25:19 11° ESE 18:29:31 33° NE 18:33:56 10° NNW
Cosmos 1733 Rocket 3.7 18:26:55 10° SSW 18:31:09 58° WNW 18:35:26 10° N
CSL-04 Debris 4.3 18:28:00 10° SE 18:33:15 55° ENE 18:38:31 10° N
Nadezhda 3 Rocket 4.1 18:29:29 10° N 18:35:30 52° ENE 18:41:30 10° SSE
Cosmos 1805 4.4 18:32:45 10° SE 18:35:48 22° E 18:38:52 10° NE
H-2A R/B 1.9 18:32:58 10° NNE 18:37:13 82° ESE 18:41:21 10° SSW
Cosmos 1238 Rocket 3.9 18:31:00 10° S 18:37:17 63° E 18:42:52 10° NNE
DMSP B5D2-2 4.1 18:33:15 10° NNE 18:38:32 65° ESE 18:43:46 10° S
Cosmos 1782 Rocket 4.2 18:35:21 10° SSE 18:39:22 35° E 18:43:24 10° NNE
Cosmos 1674 2.8 18:39:06 10° N 18:42:42 47° ENE 18:46:18 10° SSE
Cosmos 1707 3.0 18:40:42 10° NNW 18:44:37 71° W 18:48:29 10° S
H-2A R/B 4.3 18:44:34 10° SSW 18:48:49 27° W 18:53:10 10° NW
IRS-1C Rocket 4.2 18:44:30 10° SSE 18:49:45 79° WSW 18:55:03 10° NNW
CZ-4B R/B 1.1 18:47:01 10° NNE 18:50:04 62° ESE 18:53:08 10° S
CZ-3B R/B 4.5 18:45:12 10° WNW 18:52:40 25° WSW 18:55:53 10° SSW
USA 305 4.4 18:48:59 10° WNW 18:52:42 29° N 18:55:40 14° ENE
Okean-O 2.7 18:49:45 10° SSE 18:54:11 83° WSW 18:58:39 10° NNW
USA 215 3.3 18:49:44 16° ESE 18:55:15 87° NNE 19:01:51 10° NW
Ariane Rocket 4.1 18:53:33 20° E 18:55:23 25° ENE 18:59:30 10° N
Cosmos 1656 Rocket 4.2 18:50:49 10° SSE 18:55:45 33° ESE 19:00:40 10° NE
Atlas Centaur 2 4.3 18:49:27 10° SW 18:55:46 24° S 19:00:06 16° SE
PSLV R/B 4.0 18:52:31 10° NNE 18:56:36 51° E 19:00:35 10° S
ASTRO F (AKARI) 4.3 18:53:55 11° SSE 18:57:13 76° ENE 19:00:35 10° N
KORONAS-FOTON 3.6 18:54:08 10° N 18:57:55 76° E 19:01:41 10° SSE
Cosmos 1025 Rocket 3.9 18:55:14 10° N 18:59:06 30° ENE 19:00:13 26° ESE
Meteor 1-12 Rocket 4.4 18:53:30 10° S 18:59:20 55° E 19:05:10 10° NNE
COSMOS 2455 3.3 18:54:21 10° NW 19:00:19 63° WSW 19:06:15 10° SSE
Cosmos 2074 Rocket 4.3 18:54:43 10° SSW 19:00:58 73° W 19:07:16 10° N
Cosmos 1766 4.2 19:01:43 27° E 19:01:43 27° E 19:04:43 10° NNE
Cosmos 1626 2.2 18:59:53 10° N 19:03:31 52° ENE 19:05:11 28° SE
Cosmos 1538 Rocket 4.4 18:59:10 10° NNW 19:04:20 46° ENE 19:07:03 26° ESE
USA 276 2.9 19:02:58 10° W 19:06:01 45° N 19:07:18 28° NE
USA 307 4.3 19:03:14 10° WNW 19:07:00 29° N 19:09:23 18° NE
Cosmos 1975 Rocket 3.1 19:02:47 10° N 19:07:10 60° ENE 19:10:06 20° SSE
APEX 4.5 19:02:56 10° NNW 19:07:24 31° NE 19:08:32 27° ENE
Cosmos 1733 3.4 19:06:54 21° SSE 19:09:06 45° E 19:12:46 10° NNE
Cosmos 2341 Rocket 4.2 19:03:19 10° SSE 19:09:19 47° E 19:15:22 10° NNE
Resurs 01 Rocket 3.0 19:10:07 22° ENE 19:10:09 22° ENE 19:13:31 10° NNE
MetOp-A 4.3 19:05:29 10° S 19:10:50 77° WSW 19:16:13 10° NNW
Cosmos 1346 Rocket 2.7 19:09:16 10° N 19:13:18 81° ENE 19:15:52 22° SSE
USA 186 1.4 19:15:19 53° SSE 19:15:56 89° ENE 19:19:00 10° NNW
Cosmos 1300 Rocket 4.0 19:15:35 37° ESE 19:16:10 38° E 19:20:14 10° NNE
Resurs 1-3 4.0 19:18:50 38° ESE 19:19:43 44° ENE 19:23:54 10° N
USA 306 4.2 19:17:03 10° NW 19:20:50 31° N 19:22:31 23° NE
CSL-04 Rocket 4.0 19:16:20 10° S 19:21:38 67° WSW 19:27:04 10° NNW
Cosmos 2218 Rocket 4.4 19:19:28 26° SE 19:22:08 39° E 19:27:49 10° NNE
USA 308 4.2 19:22:38 10° NW 19:26:28 31° N 19:27:57 25° NE
Cosmos 158 Rocket 3.9 19:23:58 10° NNW 19:28:58 59° ENE 19:30:16 44° ESE
ATLAS CENTAUR R/B 2.9 19:24:45 10° NW 19:29:09 39° WSW 19:32:34 16° S
IGS 5A 4.2 19:30:16 35° NE 19:30:16 35° NE 19:33:39 10° N
OBJECT-B 1.3 19:29:29 38° SSW 19:30:25 57° W 19:33:33 10° NNW
Cosmos 1777 Rocket 4.1 19:31:23 10° SSW 19:36:38 79° WNW 19:41:54 10° NNE
Cosmos 1184 Rocket 3.4 19:38:40 10° NNW 19:41:48 51° W 19:41:53 51° WSW
Cosmos 2297 Rocket 4.1 19:39:36 10° N 19:42:47 15° NE 19:43:33 15° NE
Cosmos 962 Rocket 4.4 19:38:11 10° S 19:44:23 86° W 19:50:35 10° N
Lacrosse 5 rocket 2.4 19:40:31 10° WNW 19:44:48 42° SW 19:45:50 36° SSW
Cosmos 923 Rocket 4.3 19:41:04 10° NNW 19:46:05 46° ENE 19:46:16 46° ENE
Meteor 1-24 Rocket 3.6 19:41:32 10° N 19:46:49 56° ENE 19:47:24 53° ESE
SJ 16-02 1.5 19:45:27 10° SSW 19:49:51 71° WNW 19:54:19 10° NNE
ISS -2.2 19:47:51 10° WNW 19:50:41 31° N 19:50:41 31° N
Cosmos 1441 Rocket 4.0 19:49:11 10° N 19:51:51 43° N 19:51:51 43° N
Cosmos 1315 Rocket 3.2 19:52:21 27° SSW 19:54:22 61° WNW 19:58:22 10° N
Cosmos 1943 Rocket 3.9 19:52:06 10° WSW 19:57:05 32° NW 20:02:06 10° NNE
Okean 2 Rocket 3.8 19:58:44 42° NNE 19:58:44 42° NNE 20:01:44 10° NNE
BREEZE-M DEB (TANK) 4.4 19:43:36 10° WSW 19:57:55 76° SSE 19:59:06 55° E
MOS 1 4.2 19:55:59 44° SSE 19:57:56 87° WSW 20:03:41 10° NNW
SPOT 1/Viking Rocket 4.1 19:59:16 41° NE 19:59:16 41° NE 20:03:30 10° N
Cosmos 1833 4.1 19:53:06 10° NNW 19:58:46 83° WSW 20:00:03 55° SSE
Cosmos 1680 Rocket 4.0 19:54:46 10° NNW 19:59:29 45° NE 19:59:29 45° NE
IRS-1A Rocket 4.3 19:58:48 44° SSE 20:00:47 87° WSW 20:06:44 10° NNW
SJ-6B 4.2 19:59:16 27° SW 20:00:55 39° W 20:04:47 10° NNW
Terra 4.1 20:03:09 12° NE 20:03:09 12° NE 20:04:00 10° NNE
Cosmos 2227 Rocket 4.1 20:01:36 10° N 20:05:03 16° NE 20:05:12 16° NE
Cosmos 2369 Rocket 2.9 19:59:45 10° SW 20:05:16 52° WNW 20:10:48 10° NNE
SL-14 R/B 4.0 20:01:34 10° NNW 20:05:25 49° W 20:05:30 49° W
Sich 1 Rocket 3.9 20:05:16 49° SW 20:06:19 67° W 20:10:51 10° N
SeaSat 1 3.4 20:05:08 30° SSW 20:06:55 42° WSW 20:11:36 10° NW
EO 1 Delta rocket 4.2 20:07:03 50° SSW 20:08:13 67° W 20:13:38 10° NNW
Helios 1A Rocket 3.7 20:11:45 48° W 20:11:45 48° W 20:15:43 10° NNW
SL-8 Rocket 4.2 20:10:06 10° SSW 20:16:20 72° W 20:22:41 10° N
USA 281 3.1 20:10:12 10° NNE 20:16:37 64° ESE 20:16:37 64° ESE
Cosmos 2112 Rocket 4.5 20:12:50 10° NNW 20:17:07 49° NNE 20:17:07 49° NNE
Landsat 7 4.1 20:22:36 65° NW 20:22:36 65° NW 20:26:43 10° NNW
MetOp-B 4.3 20:28:23 65° N 20:28:23 65° N 20:32:59 10° NNW
Cosmos 1727 Rocket 3.9 20:25:31 10° N 20:31:53 89° ENE 20:32:02 86° SSE
USA 305 4.5 20:29:07 10° NW 20:31:42 33° NNW 20:31:42 33° NNW
Ariane Rocket 3.7 20:33:46 47° WSW 20:34:05 48° W 20:39:00 10° NNW
Meteor 2-5 Rocket 4.4 20:30:13 10° NNW 20:35:32 48° W 20:36:33 43° SW
USA 215 4.4 20:37:06 27° SSW 20:38:44 31° SW 20:44:25 10° WNW
Atlas Centaur 2 4.4 20:37:54 10° WSW 20:42:41 23° SSW 20:42:41 23° SSW
Resurs 01 Rocket 3.2 20:47:42 34° NW 20:47:42 34° NW 20:50:37 10° NNW
CENTAUR R/B 4.2 20:57:39 23° NE 20:57:39 23° NE 21:00:14 10° NE
Cosmos 2297 Rocket 3.7 21:22:21 10° NNW 21:25:21 32° NNW 21:25:21 32° NNW
Terra 4.3 21:42:03 18° NNW 21:42:03 18° NNW 21:43:16 10° NNW
Cosmos 2227 Rocket 4.0 21:44:29 10° NNW 21:47:00 27° NNW 21:47:00 27° NNW
CENTAUR R/B 4.2 22:44:45 30° NNW 22:44:48 30° NNW 22:51:19 10° NE
ATLAS 3B R/B 4.4 23:51:30 26° NNE 23:51:30 26° NNE 23:54:18 10° NE
